• In Österreich
  • Länderverzeichnis
  • Für 7 Tage
  • Wassertemperatur
  • Satellitenkarten
  • Wetterkarte
  • News
  • Widgets
  • user-avatar
    Anmelden

    Stündliche Wetter Nachiczewan

    Heute, 23 Mai, Mittwoch

    Zeit Temperatur Niederschläge Wind Luftdruck Luftfeuchtigkeit
    00:00 +21°C° 0,2 mm 2 m/S 691 mmHg 59%
    01:00 +21°C° 0,1 mm 2 m/S 691 mmHg 60%
    02:00 +20°C° 0,1 mm 2 m/S 690 mmHg 61%
    03:00 +20°C° 0,1 mm 2 m/S 690 mmHg 62%
    04:00 +20°C° 0,1 mm 2 m/S 691 mmHg 61%
    05:00 +20°C° 0,1 mm 2 m/S 691 mmHg 60%
    06:00 +20°C° 0,1 mm 2 m/S 691 mmHg 58%
    07:00 +21°C° 0,1 mm 2 m/S 691 mmHg 53%
    08:00 +23°C° 0,1 mm 2 m/S 691 mmHg 48%
    09:00 +24°C° 0,1 mm 2 m/S 691 mmHg 43%
    10:00 +26°C° 0 mm 3 m/S 691 mmHg 39%
    11:00 +27°C° 0 mm 3 m/S 691 mmHg 35%
    12:00 +28°C° 0 mm 4 m/S 691 mmHg 31%
    13:00 +29°C° 0 mm 4 m/S 691 mmHg 30%
    14:00 +29°C° 0 mm 5 m/S 690 mmHg 29%
    15:00 +30°C° 0 mm 5 m/S 690 mmHg 28%
    16:00 +29°C° 0 mm 5 m/S 690 mmHg 30%
    17:00 +28°C° 0 mm 5 m/S 690 mmHg 32%
    18:00 +27°C° 0 mm 5 m/S 689 mmHg 33%
    19:00 +26°C° 0 mm 4 m/S 690 mmHg 37%
    20:00 +25°C° 0 mm 4 m/S 690 mmHg 40%
    21:00 +22°C° 0 mm 3 m/S 690 mmHg 43%
    22:00 +23°C° 0 mm 2 m/S 690 mmHg 45%
    23:00 +21°C° 0 mm 2 m/S 690 mmHg 46%

    Morgen, 24 Mai, Donnerstag

    Zeit Temperatur Niederschläge Wind Luftdruck Luftfeuchtigkeit
    00:00 +21°C° 0 mm 2 m/S 690 mmHg 47%
    01:00 +20°C° 0 mm 2 m/S 689 mmHg 47%
    02:00 +20°C° 0 mm 2 m/S 689 mmHg 48%
    03:00 +20°C° 0 mm 1 m/S 689 mmHg 48%
    04:00 +21°C° 0 mm 1 m/S 689 mmHg 46%
    05:00 +20°C° 0 mm 2 m/S 689 mmHg 44%
    06:00 +20°C° 0 mm 2 m/S 689 mmHg 41%
    07:00 +21°C° 0 mm 2 m/S 689 mmHg 37%
    08:00 +24°C° 0 mm 2 m/S 689 mmHg 33%
    09:00 +25°C° 0 mm 2 m/S 689 mmHg 28%
    10:00 +26°C° 0 mm 2 m/S 689 mmHg 27%
    11:00 +27°C° 0 mm 3 m/S 688 mmHg 26%
    12:00 +28°C° 0 mm 3 m/S 688 mmHg 24%
    13:00 +29°C° 0 mm 3 m/S 688 mmHg 24%
    14:00 +29°C° 0 mm 4 m/S 688 mmHg 24%
    15:00 +30°C° 0 mm 4 m/S 687 mmHg 24%
    16:00 +29°C° 0 mm 4 m/S 687 mmHg 27%
    17:00 +28°C° 0 mm 5 m/S 687 mmHg 29%
    18:00 +28°C° 0 mm 5 m/S 687 mmHg 31%
    19:00 +26°C° 0 mm 4 m/S 687 mmHg 34%
    20:00 +25°C° 0 mm 4 m/S 687 mmHg 37%
    21:00 +22°C° 0 mm 3 m/S 687 mmHg 39%
    22:00 +23°C° 0 mm 2 m/S 687 mmHg 41%
    23:00 +21°C° 0 mm 2 m/S 686 mmHg 42%

    übermorgen, 25 Mai, Freitag

    Zeit Temperatur Niederschläge Wind Luftdruck Luftfeuchtigkeit
    00:00 +21°C° 0 mm 2 m/S 686 mmHg 43%
    01:00 +20°C° 0 mm 2 m/S 686 mmHg 45%
    02:00 +21°C° 0 mm 1 m/S 686 mmHg 46%
    03:00 +21°C° 0 mm 1 m/S 685 mmHg 48%
    04:00 +21°C° 0 mm 1 m/S 685 mmHg 47%
    05:00 +21°C° 0 mm 1 m/S 686 mmHg 46%
    06:00 +22°C° 0 mm 1 m/S 686 mmHg 45%
    07:00 +23°C° 0 mm 1 m/S 686 mmHg 42%
    08:00 +24°C° 0 mm 1 m/S 686 mmHg 39%
    09:00 +26°C° 0 mm 1 m/S 686 mmHg 36%
    10:00 +27°C° 0,1 mm 1 m/S 685 mmHg 35%
    11:00 +28°C° 0,1 mm 2 m/S 685 mmHg 33%
    12:00 +29°C° 0,1 mm 2 m/S 685 mmHg 31%
    13:00 +29°C° 0,1 mm 2 m/S 685 mmHg 30%
    14:00 +30°C° 0,1 mm 2 m/S 684 mmHg 29%
    15:00 +31°C° 0,1 mm 2 m/S 684 mmHg 28%
    16:00 +30°C° 0,2 mm 2 m/S 684 mmHg 30%
    17:00 +29°C° 0,2 mm 3 m/S 684 mmHg 32%
    18:00 +28°C° 0,2 mm 3 m/S 684 mmHg 35%
    19:00 +27°C° 0,1 mm 3 m/S 684 mmHg 39%
    20:00 +26°C° 0,1 mm 2 m/S 684 mmHg 43%
    21:00 +25°C° 0,1 mm 1 m/S 684 mmHg 48%
    22:00 +24°C° 0,1 mm 1 m/S 684 mmHg 49%
    23:00 +24°C° 0,1 mm 1 m/S 684 mmHg 51%

    26 Mai, Samstag

    Zeit Temperatur Niederschläge Wind Luftdruck Luftfeuchtigkeit
    00:00 +23°C° 0,1 mm 1 m/S 684 mmHg 52%
    01:00 +23°C° 0,2 mm 1 m/S 684 mmHg 54%
    02:00 +22°C° 0,2 mm 1 m/S 684 mmHg 56%
    03:00 +21°C° 0,2 mm 1 m/S 684 mmHg 57%
    04:00 +22°C° 0,1 mm 1 m/S 684 mmHg 55%
    05:00 +22°C° 0,1 mm 1 m/S 685 mmHg 53%
    06:00 +23°C° 0,1 mm 1 m/S 685 mmHg 51%
    07:00 +24°C° 0 mm 1 m/S 685 mmHg 48%
    08:00 +25°C° 0 mm 1 m/S 685 mmHg 44%
    09:00 +26°C° 0 mm 1 m/S 685 mmHg 40%
    10:00 +27°C° 0 mm 1 m/S 685 mmHg 37%
    11:00 +28°C° 0 mm 1 m/S 685 mmHg 34%
    12:00 +29°C° 0 mm 2 m/S 685 mmHg 31%
    13:00 +30°C° 0,1 mm 2 m/S 685 mmHg 30%
    14:00 +30°C° 0,1 mm 2 m/S 685 mmHg 29%
    15:00 +31°C° 0,1 mm 2 m/S 685 mmHg 28%
    16:00 +30°C° 0,3 mm 2 m/S 685 mmHg 30%
    17:00 +29°C° 0,3 mm 2 m/S 685 mmHg 32%
    18:00 +29°C° 0,3 mm 2 m/S 685 mmHg 34%
    19:00 +27°C° 0,1 mm 2 m/S 686 mmHg 39%
    20:00 +26°C° 0,1 mm 2 m/S 686 mmHg 43%
    21:00 +25°C° 0,1 mm 2 m/S 687 mmHg 47%
    22:00 +24°C° 0,1 mm 1 m/S 687 mmHg 49%
    23:00 +24°C° 0,1 mm 1 m/S 687 mmHg 51%

    27 Mai, Sonntag

    Zeit Temperatur Niederschläge Wind Luftdruck Luftfeuchtigkeit
    00:00 +23°C° 0,1 mm 1 m/S 687 mmHg 52%
    01:00 +23°C° 0 mm 1 m/S 687 mmHg 53%
    02:00 +22°C° 0 mm 1 m/S 687 mmHg 54%
    03:00 +22°C° 0 mm 1 m/S 687 mmHg 54%
    04:00 +22°C° 0 mm 1 m/S 688 mmHg 53%
    05:00 +23°C° 0 mm 1 m/S 689 mmHg 52%
    06:00 +23°C° 0 mm 2 m/S 689 mmHg 51%
    07:00 +24°C° 0 mm 2 m/S 690 mmHg 46%
    08:00 +26°C° 0 mm 2 m/S 690 mmHg 42%
    09:00 +27°C° 0 mm 2 m/S 691 mmHg 38%
    10:00 +28°C° 0 mm 3 m/S 691 mmHg 35%
    11:00 +29°C° 0 mm 3 m/S 691 mmHg 33%
    12:00 +30°C° 0 mm 3 m/S 691 mmHg 30%
    13:00 +30°C° 0 mm 3 m/S 691 mmHg 29%
    14:00 +32°C° 0 mm 4 m/S 691 mmHg 29%
    15:00 +32°C° 0 mm 4 m/S 691 mmHg 28%
    16:00 +30°C° 0 mm 4 m/S 691 mmHg 31%
    17:00 +29°C° 0 mm 4 m/S 691 mmHg 34%
    18:00 +28°C° 0 mm 4 m/S 691 mmHg 38%
    19:00 +27°C° 0 mm 4 m/S 691 mmHg 42%
    20:00 +25°C° 0 mm 3 m/S 692 mmHg 47%
    21:00 +24°C° 0 mm 3 m/S 692 mmHg 51%
    22:00 +22°C° 0 mm 3 m/S 692 mmHg 53%
    23:00 +21°C° 0 mm 2 m/S 692 mmHg 55%

    28 Mai, Montag

    Zeit Temperatur Niederschläge Wind Luftdruck Luftfeuchtigkeit
    00:00 +21°C° 0 mm 2 m/S 691 mmHg 56%
    01:00 +20°C° 0 mm 2 m/S 691 mmHg 57%
    02:00 +20°C° 0 mm 2 m/S 691 mmHg 58%
    03:00 +20°C° 0 mm 1 m/S 691 mmHg 59%
    04:00 +21°C° 0 mm 1 m/S 691 mmHg 57%
    05:00 +21°C° 0 mm 1 m/S 691 mmHg 55%
    06:00 +22°C° 0 mm 1 m/S 691 mmHg 53%
    07:00 +23°C° 0 mm 1 m/S 691 mmHg 48%
    08:00 +25°C° 0 mm 1 m/S 691 mmHg 44%
    09:00 +26°C° 0 mm 1 m/S 691 mmHg 39%
    10:00 +28°C° 0 mm 1 m/S 691 mmHg 36%
    11:00 +29°C° 0 mm 1 m/S 690 mmHg 32%
    12:00 +30°C° 0 mm 1 m/S 690 mmHg 29%
    13:00 +31°C° 0 mm 1 m/S 690 mmHg 26%
    14:00 +32°C° 0 mm 2 m/S 689 mmHg 24%
    15:00 +32°C° 0 mm 2 m/S 689 mmHg 22%
    16:00 +32°C° 0,1 mm 2 m/S 689 mmHg 23%
    17:00 +32°C° 0,1 mm 2 m/S 689 mmHg 24%
    18:00 +31°C° 0,1 mm 2 m/S 689 mmHg 25%
    19:00 +29°C° 0,2 mm 2 m/S 689 mmHg 30%
    20:00 +27°C° 0,2 mm 2 m/S 689 mmHg 36%
    21:00 +26°C° 0,2 mm 1 m/S 689 mmHg 42%
    22:00 +25°C° 0 mm 2 m/S 689 mmHg 44%
    23:00 +25°C° 0 mm 2 m/S 689 mmHg 46%
    Mehr zeigen